Volver al catálogo

COSMOS 2251 DEB

ActivoLEO
NORAD 35038·DEBRIS·🇷🇺 Russia

Lanzado Jun 16, 1993 desde Plesetsk Cosmodrome

Loading…

Próximos Pases (próximas 24 horas)

TLE

EnvejeciendoSource: Space-Track

Época: Sep 12, 2026, 09:18 UTC

1 35038U 93036AHB 26255.38753766  .00001557  00000-0  61079-3 0  9999
2 35038  74.1043 270.1804 0110503 187.3010 237.9609 14.26889472894707

Sigue COSMOS 2251 DEB en tiempo real con AllMySat

Download on the App Store